Regional Weather Roundup
Issued by NWS

Current Version | Previous Version | Text Only | Print | Product List | Glossary On
Versions: 1 2 3 4 5 6 7 8 9 10 11 12 13 14 15 16 17 18 19 20 21 22 23 24 25 26 27 28 29 30 31 32 33 34 35 36 37 38 39 40 41 42 43 44 45 46 47 48 49 50
000
ASUS44 KLUB 011401
RWRTX
WEST TEXAS WEATHER ROUNDUP
NATIONAL WEATHER SERVICE LUBBOCK TX
900 AM CDT SAT NOV 01 2014

NOTE: "FAIR" INDICATES FEW OR NO CLOUDS BELOW 12,000 FEET WITH NO
SIGNIFICANT WEATHER AND/OR OBSTRUCTIONS TO VISIBILITY.

TXZ004-006>008-010-012-014-016-OKZ002-011500-
TEXAS PANHANDLE/OKLAHOMA PANHANDLE

CITY           SKY/WX    TMP DP  RH WIND       PRES   REMARKS
AMARILLO       CLEAR     37  28  70 S20       30.27S WCI  27
BORGER         CLEAR     39  24  55 S14G24    30.28R WCI  31
CANADIAN       PTCLDY    38  24  55 S12G18    30.31R WCI  31
DALHART        PTCLDY    42  30  62 S20       30.21S
DUMAS            N/A     39  30  68 S15       30.23S WCI  31
GUYMON         PTCLDY    40  27  59 S16G24    30.20S WCI  31
HEREFORD       PTCLDY    41  34  76 MISG      30.29R
PAMPA          CLEAR     36  23  60 S23G31    30.27S WCI  24
$$

TXZ026-029-035-045-048-011500-
SOUTHERN PANHANDLE/SOUTH PLAINS/ROLLING PLAINS

CITY           SKY/WX    TMP DP  RH WIND       PRES   REMARKS
CHILDRESS      MOSUNNY   37  25  61 SE12      30.37R WCI  29
LUBBOCK        MOCLDY    40  31  70 SE9       30.29S WCI  34
SNYDER         SUNNY     42  35  76 CALM      30.34R
$$

TXZ052-054-060>062-072-078-127-140-154-169-011500-
PERMIAN BASIN/CONCHO VALLEY/BIG COUNTRY/EDWARDS PLATEAU

CITY           SKY/WX    TMP DP  RH WIND       PRES   REMARKS
ABILENE        SUNNY     43  33  68 SE9       30.37R
BIG SPRING     MOSUNNY   47  34  60 SE3       30.34R
JUNCTION       SUNNY     41  35  79 CALM      30.37R
MIDLAND        MOSUNNY   47  34  60 SE14      30.30R
ODESSA         MOCLDY    48  34  58 SE15      30.30R
SAN ANGELO     SUNNY     41  33  73 SE3       30.34S
SONORA         SUNNY     48  36  61 VRB5      30.38S
WINK           MOCLDY    50  31  48 SE16      30.24S
$$

TXZ055-058-074-075-080-082-011500-
FAR WEST/SOUTHWEST MOUNTAINS/TRANS PECOS

CITY           SKY/WX    TMP DP  RH WIND       PRES   REMARKS
ALPINE         CLEAR     52  39  60 SW10      30.34R
DRYDEN           N/A     54  40  59 E10       30.31R
EL PASO        MOCLDY    59  40  49 CALM      30.15R
FORT STOCKTON  CLEAR     52  37  56 S21G29    30.25R
MARFA          CLEAR     43  37  81 CALM      30.32R
PECOS          CLEAR     50  33  51 E9        30.24R
PRESIDIO       FAIR      60  42  52 NE10      30.23S
$$

TXZ014-016-019-021>030-083-011500
TEXAS TECH WEST TEXAS MESONET/TEXAS PANHANDLE/NORTHERN SOUTH PLAINS

CITY           SKY/WX    TMP DP  RH WIND       PRES   REMARKS
ABERNATHY 5ENE   N/A     37  32  84 SE9       30.30S WCI  30
AMARILLO 9NNE    N/A     38  28  67 S16       30.26S WCI  29
AMARILLO 7SSE    N/A     35  28  75 S9        30.29S WCI  28
AMHERST 1NE      N/A     40  33  74 S12       30.28S WCI  33
BOOTLEG 11WNW    N/A     38  30  70 S12       30.28S WCI  31
CANADIAN 6E      N/A     35  23  62 SE14      30.30R WCI  26
CAPROCK CYN SP   N/A     38  28  64 S7        30.34R WCI  33
CHILDRESS 2NNE   N/A     35  25  67 SE7       30.35S WCI  29
CLARENDON 2WSW   N/A     37  24  59 SE9       30.33R WCI  30
CLAUDE 12SW      N/A     35  26  67 S9        30.29S WCI  28
DIMMITT 2NE      N/A     37  31  78 S14       30.28S WCI  29
FLOYDADA 2NNE    N/A     36  29  75 SE8       30.30S WCI  30
FRIONA 2NE       N/A     36  31  80 S2        30.28S
GOODLETT 3W      N/A     36  26  66 E7        30.36S WCI  30
HART 3N          N/A     36  31  83 SE5       30.29S WCI  32
HEREFORD 2NW     N/A     39  30  72 S6        30.28R WCI  34
MCLEAN 1E        N/A     34  22  61 SE15      30.30S WCI  24
MEMPHIS 1NE      N/A     37  27  68 E2        30.36R
MULESHOE 2SSW    N/A     40  32  74 S7        30.28S WCI  35
OLTON 6S         N/A     35  32  87 S3        30.29R
PALO DURO SP     N/A     37  27  68 S10       30.30S WCI  29
PAMPA 2E         N/A     34  23  65 S17       30.28S WCI  23
PLAINVIEW 1S     N/A     36  30  78 SE7       30.29R WCI  31
SILVERTON 7ESE   N/A     38  26  61 SE12      30.32R WCI  30
TULIA 2ENE       N/A     35  30  83 S8        30.30S WCI  28
TURKEY 2WSW      N/A     35  28  75 SE2       30.34R
UMBARGER 3NNE    N/A     38  30  73 S13       30.28R WCI  30
$$

TXZ033>036-039>041-045>048-011500
TEXAS TECH WEST TEXAS MESONET/SOUTH PLAINS

CITY           SKY/WX    TMP DP  RH WIND       PRES   REMARKS
AIKEN 3WSW       N/A     36  29  76 SE7       30.31S WCI  30
ANTON 6SSW       N/A     39  33  79 SE10      30.29S WCI  32
BROWNFIELD 2S    N/A     39  33  80 SE9       30.30S WCI  32
DENVR CTY 7WNW   N/A     39  32  77 SE7       30.28R WCI  34
GAIL 2ESE        N/A     40  36  86 CALM      30.32R
LAMESA 2SE       N/A     40  34  80 E3        30.32R
LEVELLAND 4S     N/A     40  32  74 SE9       30.29S WCI  34
LUBBOCK 3WNW     N/A     43  32  66 SE9       30.31R
MORTON 1ENE      N/A     39  32  77 SE7       30.28R WCI  34
ODONNELL 1N      N/A     40  33  74 SE5       30.31R
PLAINS 3N        N/A     39  32  76 SE9       30.29R WCI  33
RALLS 1SE        N/A     37  29  73 SE6       30.32S WCI  32
REESE CENTER     N/A     41  32  72 SE13      30.29S
SEAGRAVES 1SW    N/A     40  33  77 SE5       30.30R
SEMINOLE 2NNE    N/A     40  33  75 E7        30.30R
SLATON 2NE       N/A     38  31  78 E5        30.32R WCI  34
SNYDER 3E        N/A     43  36  76 E5        30.33R
SUNDOWN 8SW      N/A     37  32  82 SE7       30.29R WCI  32
TAHOKA 3NNE      N/A     41  33  74 SE7       30.30S
WOLFFORTH 6SSW   N/A     39  34  81 SE6       30.30S WCI  35
$$

TXZ031-032-036>038-042>044-011500-
TEXAS TECH WEST TEXAS MESONET/ROLLING PLAINS

CITY           SKY/WX    TMP DP  RH WIND       PRES   REMARKS
ASPERMONT 3NE    N/A     38  31  76 E2        30.37R
FLUVANNA 3WNW    N/A     42  35  75 SE7       30.32R
GRAHAM 5SSW      N/A     42  33  70 SE6       30.32R
GUTHRIE 10WSW    N/A     34  26  73 SE1       30.34F
HASKELL 1NW      N/A     39  29  68 E7        30.37R WCI  34
JAYTON 1SSE      N/A     38  31  78 E5        30.35S WCI  34
KNOX CITY 3NW    N/A     38  30  71 E6        30.38S WCI  34
LK A HENRY 1NW   N/A     40  34  77 E3        30.33S
NORTHFIELD 1S    N/A     36  28  71 SE7       30.34S WCI  31
ODELL 4ENE       N/A     37  25  61 E12       30.39S WCI  29
PADUCAH 10SW     N/A     36  28  71 SE5       30.35S WCI  32
POST 1NE         N/A     40  32  74 NE1       30.33R
RRING SPRGS 3N   N/A     36  29  76 SE3       30.33S
SEYMOUR 3NW      N/A     39  29  67 E5        30.40R
SPUR 1W          N/A     34  30  85 NE1       30.33S
WEINERT 2NNE     N/A     39  29  66 E7        30.38  WCI  34
WHITE RVR 6NE    N/A     38  29  67 E5        30.32S WCI  35
$$

TXZ052-054-060>062-072-078-127-140-154-169-011500-
TEXAS TECH WEST TEXAS MESONET/PERMIAN BASIN/
CONCHO VALLEY/BIG COUNTRY/EDWARDS PLATEAU

CITY           SKY/WX    TMP DP  RH WIND       PRES   REMARKS
COYANOSA 2N      N/A     50  33  52 E10       30.26R
JUNCTION 1SSW    N/A     40  35  82 CALM      30.38R
MERTZON 3NNE     N/A     42  31  67 W1        30.34S
SAN ANGELO 7NW   N/A     44  34  67 E7        30.34S
STRLNG CT 4WSW   N/A     47  35  63 E9        30.33S
ST LAWRNCE 5SW   N/A     44  33  67 SE9       30.31R
SWEETWATR 11SW   N/A     45  36  68 SE10      30.33S
WALL 1E          N/A     39  32  75 E3        30.35R
$$

TXZ055-058-074-075-080-082-011500-
TEXAS TECH WEST TEXAS MESONET/FAR WEST/SOUTHWEST MOUNTAINS/TRANS PECOS

CITY           SKY/WX    TMP DP  RH WIND       PRES   REMARKS
PRSMN GAP BBNP   N/A     53  37  56 NE16      30.28R
GUADLPE MTN NP   N/A     54  43  66 W7        30.27S
$$



USA.gov is the U.S. government's official web portal to all federal, state and local government web resources and services.